[[{"header":{"parameterUnit":"m.s-1","parameterCategory":1,"la1":30.2991,"la2":30.254,"lo1":-89.0895,"lo2":-89.0444,"dy":0.0017,"dx":0.0017,"nx":28,"ny":28,"refTime":"2025-09-05T03:00:00:Z","depth":0,"parameterNumber":2,"parameterNumberName":"U-component_of_WINDS"},"data":[0,0,0,0,0,0,0,0,0,0,0,0,0,0,0,0,0,0,0,0,0,0,0,0,0,0,0,0,0,0,0,0,0,0,0,0,0,0,0,0,0,0,0,0,0,0,0,0,0,0,0,0,0,0,0,0,0,0,0.3799,0.3799,0,0.3757,0.3756,0.3756,0.3709,0.3708,0.3707,0.3707,0.3663,0.3662,0.3662,0,0,0,0,0,0,0,0,0,0,0,0,0,0.3839,0.3838,0.3799,0.3799,0.3798,0.3757,0.3756,0.3755,0.3709,0.3708,0.3707,0.3706,0.3663,0.3662,0.3662,0,0,0,0,0,0,0,0,0,0,0,0,0,0.3811,0.3838,0.3799,0.377,0.3767,0.3757,0.3756,0.3755,0.3709,0.3708,0.3707,0.3706,0.3663,0.3662,0.3662,0.3677,0,0,0.3659,0.3659,0,0,0,0,0,0,0,0,0.3813,0.381,0.3775,0.3772,0.3768,0.3737,0.3754,0.3729,0.3709,0.3731,0.3706,0.3705,0.3688,0.3685,0.3679,0.3675,0.3673,0.3659,0.3659,0.3658,0.3658,0,0,0,0,0,0,0,0.3815,0.3812,0.3782,0.3774,0.377,0.3758,0.3753,0.3749,0.3716,0.3729,0.3725,0.3721,0.3686,0.368,0.3678,0.3673,0.3659,0.3658,0.3658,0.3658,0.3675,0.3676,0,0,0,0,0,0,0.3821,0.3813,0.3784,0.3781,0.3789,0.3758,0.3753,0.3748,0.3716,0.371,0.3722,0.3719,0.3682,0.3679,0.3676,0.369,0.3658,0.3658,0.3657,0.3674,0.3675,0.3676,0,0,0,0,0,0,0.3822,0.3819,0.3785,0.3796,0.3791,0.3759,0.3754,0.3748,0.3742,0.371,0.3704,0.3722,0.3681,0.3678,0.3676,0.3688,0.3657,0.3656,0.3673,0.3674,0.3675,0.3718,0,0,0,0,0,0,0.3824,0.382,0.3826,0.3797,0.3791,0.3787,0.3755,0.3748,0.374,0.3736,0.3709,0.3703,0.368,0.3678,0.3676,0.3686,0.3656,0.3672,0.3673,0.3675,0.3716,0.3721,0.3726,0,0,0,0,0,0.3825,0.3841,0.3827,0.3823,0.3798,0.3788,0.3784,0.3757,0.3742,0.3747,0.3726,0.3704,0.3687,0.3678,0.3675,0.3686,0.3671,0.3673,0.3675,0.3713,0.372,0.3725,0,0,0,0,0,0,0.3873,0.3836,0.382,0.3827,0.3811,0.378,0.3786,0.3765,0.3753,0.375,0.3717,0.3711,0.3713,0.37,0.369,0.3697,0.3675,0.3677,0.3706,0.3712,0.3717,0.3719,0.3655,0,0,0,0,0,0.3884,0.3879,0.3848,0.3856,0.3849,0.3819,0.3814,0.3794,0.3776,0.3769,0.3748,0.3731,0.3722,0.3716,0.3706,0.3714,0.3706,0.3719,0.3724,0.3728,0.373,0.3729,0.3734,0.3683,0.3683,0.3683,0,0,0.3907,0.3887,0.3886,0.3865,0.385,0.3845,0.3813,0.381,0.3805,0.3768,0.3765,0.3749,0.3728,0.3731,0.3731,0.3719,0.3742,0.3731,0.3735,0.3733,0.3732,0.3737,0.3741,0.3684,0.3684,0.3684,0,0,0.3946,0.3931,0.3935,0.392,0.3898,0.3877,0.3878,0.385,0.3838,0.3834,0.3805,0.3799,0.3784,0.3769,0.376,0.379,0.3768,0.3788,0.3813,0.3813,0.3817,0.3821,0.3829,0.3833,0.379,0.379,0.379,0,0.3977,0.3969,0.394,0.3937,0.3927,0.3893,0.3896,0.3883,0.3859,0.3853,0.384,0.3818,0.3802,0.3799,0.3806,0.38,0.3799,0.379,0.3819,0.3822,0.3825,0.3832,0.3836,0.3792,0.3792,0.3791,0.3791,0,0.4007,0.4001,0.4007,0.3983,0.3974,0.3975,0.3944,0.3939,0.392,0.3901,0.3896,0.3875,0.3858,0.3856,0.3838,0.385,0.3843,0.3825,0.3803,0.3833,0.3839,0.3842,0.3795,0.3794,0.3794,0.3793,0,0,0.4075,0.4033,0.4036,0.4023,0.3995,0.3989,0.3987,0.397,0.3965,0.3949,0.3945,0.3932,0.3914,0.3903,0.3883,0.3884,0.3906,0.3865,0.3864,0.3872,0.3914,0.3926,0.393,0.3891,0.3892,0.3892,0.3915,0,0.4107,0.41,0.4073,0.4074,0.4067,0.4034,0.4031,0.4013,0.3994,0.3985,0.3964,0.3954,0.3934,0.3926,0.3925,0.3903,0.3913,0.3901,0.3886,0.3885,0.389,0.3934,0.3947,0.3969,0.3918,0.3918,0.3918,0,0.4143,0.4128,0.4128,0.4098,0.4094,0.4092,0.4073,0.4065,0.4043,0.4029,0.4016,0.3992,0.3986,0.3966,0.3956,0.3949,0.394,0.3928,0.3928,0.3925,0.3903,0.3929,0.3976,0.3979,0.3922,0.3922,0.3922,0,0.4189,0.4169,0.4166,0.4157,0.4122,0.4121,0.4106,0.4083,0.4073,0.4057,0.405,0.4033,0.4023,0.401,0.3982,0.3971,0.3974,0.3953,0.3961,0.3962,0.3963,0.3963,0.4007,0.3961,0.3961,0.3961,0.3961,0,0.4227,0.4228,0.4186,0.4184,0.4183,0.4151,0.4151,0.4133,0.4112,0.4105,0.4076,0.4069,0.4034,0.4023,0.4001,0.3994,0.3991,0.3978,0.3972,0.398,0.3981,0.3973,0.397,0.3962,0.3961,0.3961,0.3961,0,0.4278,0.425,0.4244,0.4211,0.4202,0.4203,0.4174,0.4169,0.4149,0.4139,0.4136,0.4102,0.4088,0.4059,0.4037,0.4022,0.402,0.401,0.4027,0.4023,0.4032,0.4031,0.4071,0.4074,0.4028,0.4029,0.4029,0,0.4303,0.4302,0.4268,0.4261,0.4247,0.4237,0.4226,0.4195,0.4185,0.4158,0.4157,0.414,0.4124,0.4103,0.4076,0.4058,0.4047,0.4062,0.4044,0.4051,0.4044,0.4044,0.4042,0.4066,0.4066,0.4067,0.4067,0,0.4349,0.4334,0.4321,0.4302,0.4291,0.4274,0.4257,0.4252,0.4216,0.4207,0.4191,0.4179,0.4155,0.4138,0.4116,0.4099,0.4077,0.4073,0.4074,0.4081,0.409,0.4083,0.4036,0.4072,0.4072,0.4072,0.4071,0.4071,0.4386,0.4383,0.4358,0.4343,0.4326,0.4309,0.4303,0.428,0.4267,0.4245,0.4227,0.4212,0.4187,0.4155,0.414,0.4127,0.4116,0.4118,0.4118,0.4118,0.4121,0.4093,0.4123,0.4123,0.4123,0.4123,0.4123,0,0.4428,0.441,0.4397,0.4372,0.436,0.434,0.4318,0.4309,0.4296,0.4275,0.426,0.4241,0.4223,0.4195,0.4175,0.417,0.4159,0.4165,0.4164,0.416,0.4133,0.4133,0.4174,0.4174,0.4174,0.4174,0.4174,0.4174,0.4448,0.4441,0.4424,0.4407,0.4389,0.4374,0.4363,0.4347,0.433,0.4309,0.4294,0.4276,0.4251,0.4228,0.4211,0.4203,0.4196,0.4205,0.4194,0.4168,0.4163,0.4158,0.4158,0.4204,0.4205,0.4222,0.4223,0.4223]},{"header":{"parameterUnit":"m.s-1","parameterCategory":1,"la1":30.2991,"la2":30.254,"lo1":-89.0895,"lo2":-89.0444,"dy":0.0017,"dx":0.0017,"nx":28,"ny":28,"refTime":"2025-09-05T03:00:00:Z","depth":0,"parameterNumber":3,"parameterNumberName":"V-component_of_WINDS"},"data":[0,0,0,0,0,0,0,0,0,0,0,0,0,0,0,0,0,0,0,0,0,0,0,0,0,0,0,0,0,0,0,0,0,0,0,0,0,0,0,0,0,0,0,0,0,0,0,0,0,0,0,0,0,0,0,0,0,0,0.3068,0.3069,0,0.3134,0.3135,0.3136,0.3163,0.3163,0.3163,0.3163,0.3231,0.3233,0.3235,0,0,0,0,0,0,0,0,0,0,0,0,0,0.2965,0.2966,0.3068,0.3069,0.307,0.3134,0.3135,0.3136,0.3163,0.3163,0.3163,0.3163,0.323,0.3233,0.3235,0,0,0,0,0,0,0,0,0,0,0,0,0,0.3018,0.2967,0.3068,0.3091,0.3094,0.3134,0.3135,0.3136,0.3163,0.3163,0.3163,0.3162,0.323,0.3232,0.3235,0.3258,0,0,0.3244,0.3246,0,0,0,0,0,0,0,0,0.3015,0.3022,0.3087,0.3089,0.3093,0.314,0.3124,0.3177,0.3163,0.3137,0.3163,0.3162,0.3201,0.3206,0.3219,0.3261,0.3264,0.3245,0.3246,0.3248,0.3248,0,0,0,0,0,0,0,0.3011,0.3019,0.3094,0.3088,0.3091,0.3098,0.3105,0.3134,0.3169,0.3139,0.3141,0.3149,0.3203,0.3216,0.3221,0.3265,0.3244,0.3247,0.3249,0.325,0.3328,0.3328,0,0,0,0,0,0,0.3004,0.3016,0.3092,0.3096,0.3052,0.31,0.3108,0.3125,0.3169,0.3176,0.3149,0.315,0.3211,0.3218,0.3224,0.3252,0.3248,0.325,0.3252,0.3327,0.3328,0.3328,0,0,0,0,0,0,0.3001,0.301,0.309,0.3057,0.3067,0.3102,0.3121,0.3127,0.314,0.3176,0.3183,0.3156,0.3211,0.3219,0.3249,0.3255,0.3252,0.3254,0.3327,0.3328,0.3328,0.3311,0,0,0,0,0,0,0.2998,0.3009,0.3018,0.3057,0.3069,0.3114,0.3121,0.3128,0.3145,0.3147,0.3185,0.3191,0.3212,0.3244,0.3252,0.3259,0.3257,0.3327,0.3327,0.3328,0.3311,0.331,0.331,0,0,0,0,0,0.2994,0.3011,0.3019,0.3028,0.3081,0.3114,0.3121,0.3144,0.3146,0.3155,0.3178,0.319,0.3253,0.3247,0.3256,0.3264,0.3326,0.3327,0.3328,0.3311,0.331,0.331,0,0,0,0,0,0,0.2973,0.3017,0.3025,0.3055,0.3081,0.3119,0.3131,0.3143,0.3169,0.317,0.3198,0.3206,0.3233,0.3252,0.3244,0.3288,0.3291,0.3293,0.3275,0.3275,0.3274,0.327,0.3259,0,0,0,0,0,0.2972,0.2995,0.3032,0.3054,0.3067,0.3097,0.3112,0.3127,0.3155,0.3166,0.3192,0.3218,0.3244,0.326,0.3286,0.3313,0.3322,0.3323,0.3323,0.3322,0.3324,0.3339,0.334,0.333,0.333,0.333,0,0,0.297,0.2996,0.3009,0.3051,0.3072,0.3096,0.3106,0.313,0.3148,0.317,0.32,0.3219,0.325,0.3278,0.3292,0.3295,0.3329,0.3323,0.3322,0.3325,0.334,0.3341,0.3342,0.3331,0.3331,0.3331,0,0,0.2977,0.3,0.3021,0.3042,0.3074,0.3094,0.3099,0.3135,0.3148,0.3178,0.3195,0.3216,0.326,0.3282,0.3298,0.3312,0.3324,0.332,0.3318,0.3333,0.3333,0.3334,0.3339,0.3341,0.3322,0.3321,0.3321,0,0.297,0.3006,0.303,0.3053,0.3071,0.3091,0.3112,0.3132,0.3171,0.3183,0.3185,0.324,0.3262,0.3296,0.3299,0.3312,0.3318,0.3316,0.3331,0.3333,0.3334,0.3339,0.334,0.3321,0.3321,0.3321,0.3321,0,0.2996,0.302,0.3033,0.307,0.3089,0.3111,0.3138,0.3154,0.3168,0.3187,0.3216,0.3244,0.3275,0.3284,0.3298,0.3319,0.332,0.3326,0.333,0.3333,0.3338,0.3341,0.332,0.332,0.332,0.332,0,0,0.2993,0.3042,0.3046,0.3063,0.31,0.3119,0.3141,0.3172,0.3185,0.3211,0.3231,0.3266,0.3272,0.3291,0.3307,0.332,0.3329,0.3325,0.3326,0.3325,0.3354,0.3348,0.335,0.3337,0.3337,0.3337,0.3351,0,0.3006,0.3048,0.3069,0.3101,0.3124,0.3143,0.3163,0.3187,0.3205,0.3227,0.3247,0.3272,0.3278,0.329,0.3303,0.3325,0.3335,0.3324,0.3355,0.3356,0.3347,0.3353,0.3348,0.336,0.3353,0.3353,0.3354,0,0.3027,0.3052,0.3086,0.3119,0.313,0.3147,0.3176,0.3196,0.3224,0.3236,0.3257,0.3272,0.3296,0.3297,0.3331,0.3323,0.3337,0.3349,0.335,0.3354,0.3355,0.3357,0.3364,0.3365,0.3357,0.3357,0.3357,0,0.3021,0.3063,0.3089,0.3103,0.3142,0.3154,0.3171,0.3198,0.3215,0.324,0.3251,0.3278,0.3294,0.3315,0.3337,0.3336,0.3368,0.3371,0.3379,0.3378,0.3385,0.3385,0.3394,0.3394,0.3394,0.3394,0.3393,0,0.3033,0.3053,0.3087,0.3103,0.3126,0.315,0.3172,0.3191,0.3215,0.3234,0.3252,0.3271,0.3299,0.332,0.3338,0.3363,0.3369,0.338,0.3384,0.3378,0.3377,0.3388,0.3388,0.3394,0.3394,0.3394,0.3394,0,0.3031,0.3055,0.3084,0.3118,0.3127,0.3143,0.3172,0.3188,0.3207,0.3231,0.3239,0.3268,0.3294,0.3318,0.3353,0.3365,0.339,0.3395,0.338,0.3383,0.3389,0.3388,0.3406,0.341,0.3406,0.3406,0.3406,0,0.3038,0.3054,0.3089,0.3103,0.312,0.3143,0.3159,0.3183,0.32,0.3232,0.3244,0.3271,0.3294,0.3335,0.3359,0.3386,0.3392,0.3397,0.3396,0.339,0.3392,0.3391,0.3393,0.3396,0.3396,0.3396,0.3396,0,0.3046,0.3057,0.308,0.3107,0.3126,0.3149,0.3172,0.3182,0.321,0.3228,0.3254,0.3272,0.3307,0.3334,0.3363,0.338,0.3393,0.3396,0.3399,0.3393,0.3384,0.3389,0.3379,0.3396,0.3396,0.3396,0.3396,0.3396,0.3049,0.3064,0.3091,0.3116,0.3135,0.3156,0.3173,0.3193,0.3215,0.3246,0.3258,0.3285,0.3311,0.3352,0.3369,0.339,0.3393,0.3397,0.3398,0.3399,0.3398,0.338,0.3395,0.3395,0.3395,0.3395,0.3395,0,0.3058,0.3076,0.3099,0.313,0.315,0.3159,0.3185,0.3201,0.3224,0.3247,0.3269,0.33,0.3325,0.3351,0.3378,0.339,0.3396,0.3396,0.3396,0.34,0.3394,0.3389,0.3391,0.3391,0.3391,0.3391,0.3391,0.3391,0.3066,0.3091,0.3104,0.3139,0.3157,0.3184,0.3197,0.3216,0.3235,0.3268,0.3289,0.3306,0.333,0.3359,0.3383,0.3389,0.3399,0.3397,0.3405,0.34,0.34,0.34,0.3395,0.3399,0.3399,0.3409,0.3409,0.3409]}]]